Location: Gunnison Valley Observatory
(38.5087°N, 106.9386°W)
Time: 18:39:15
(UTC-07:00)

Amateur Radio Satellites - All Passes

Search period start: 19 December 2014 18:09
Search period end: 20 December 2014 18:09
Location: Gunnison Valley Observatory, 38.5087°N, 106.9386°W

Satellite Date Start Highest point End Downlink Frequencies (MHz)
Time Altitude Azimuth
RS-15 19 Dec 18:13:06 18:20:58 21° 23° (NNE) 18:29:00 29.354- 29.394
MOZHAYETS 4 19 Dec 18:20:13 18:23:17 18° 294° (WNW) 18:26:20
Cubesat XI-IV 19 Dec 18:20:45 18:25:40 38° 262° (W) 18:30:37 437.490
CUSAT 1 19 Dec 18:35:01 18:36:37 11° 61° (ENE) 18:38:16 437.405
MaSat-1 19 Dec 18:44:12 18:46:36 66° 247° (WSW) 18:49:10 437.345
CUTE-I 19 Dec 18:55:55 18:59:33 19° 267° (W) 19:03:13 437.470
ISS 19 Dec 19:09:04 19:11:12 16° 22° (NNE) 19:13:19 145.825
DANDE 19 Dec 19:18:14 19:23:52 22° 69° (ENE) 19:29:59 436.750
AAUSAT CUBESAT 2 19 Dec 19:18:18 19:19:04 10° 63° (ENE) 19:19:51 437.432
BRITE-PL 19 Dec 19:18:31 19:21:23 18° 68° (ENE) 19:24:14 437.365/2234.400
STRAND 1 19 Dec 19:23:36 19:28:39 67° 286° (WNW) 19:33:41 437.568
CANX-2 19 Dec 19:25:19 19:28:38 23° 69° (ENE) 19:31:59 2200.000
HO-68 19 Dec 19:26:28 19:33:08 43° 66° (ENE) 19:39:49 435.675
PRISM 19 Dec 19:27:56 19:30:51 19° 293° (WNW) 19:33:44 437.425
CUBESAT XI-V 19 Dec 19:39:20 19:43:27 33° 289° (WNW) 19:47:33 437.345
GOMX 1 19 Dec 19:49:33 19:53:06 28° 70° (ENE) 19:56:39 467.674
COMPASS 1 19 Dec 19:49:44 19:53:19 27° 70° (ENE) 19:56:55 437.405
SEEDS 19 Dec 19:53:32 19:57:24 36° 72° (ENE) 20:01:20 437.485
CUTE 1.7 + AOD 2 19 Dec 19:55:25 19:59:28 44° 73° (ENE) 20:03:33 437.475
DX 1 19 Dec 20:05:46 20:08:20 16° 65° (ENE) 20:10:54 434.975-435.025
SO-50 19 Dec 20:05:50 20:08:37 16° 109° (ESE) 20:11:27 436.795
DELFI C3 19 Dec 20:13:13 20:16:01 18° 67° (ENE) 20:18:50 145.870
CUSAT 1 19 Dec 20:13:23 20:20:59 57° 78° (ENE) 20:29:20 437.405
DOVE 4 19 Dec 20:19:07 20:23:03 44° 73° (ENE) 20:27:01 437.250
RS-15 19 Dec 20:25:25 20:36:31 58° 52° (NE) 20:48:02 29.354- 29.394
Oscar 11 19 Dec 20:28:29 20:32:22 33° 71° (ENE) 20:36:17 145.826/435.025
UKube-1 19 Dec 20:36:26 20:40:16 32° 70° (ENE) 20:44:08 .
CUBEBUG 2 19 Dec 20:41:49 20:45:23 28° 70° (ENE) 20:49:01 437.445
ISS 19 Dec 20:44:53 20:48:10 88° 220° (SW) 20:51:26 145.825
AAUSAT CUBESAT 2 19 Dec 20:49:59 20:54:09 65° 259° (W) 20:58:22 437.432
CINEMA 3 19 Dec 20:51:30 20:55:35 61° 75° (ENE) 20:59:46 145.822/145.860
VELOX 1 19 Dec 20:55:52 20:58:51 18° 66° (ENE) 21:01:49 145.980
BRITE-PL 19 Dec 20:55:57 20:59:43 32° 263° (W) 21:03:27 437.365/2234.400
ZACube-1 19 Dec 20:56:35 21:00:12 29° 70° (ENE) 21:03:54 437.345
DANDE 19 Dec 21:00:09 21:07:53 83° 263° (W) 21:16:36 436.750
CANX-2 19 Dec 21:00:44 21:04:25 28° 264° (W) 21:08:08 2200.000
BEESAT 2 19 Dec 21:12:12 21:14:10 13° 43° (NE) 21:16:07 435.950
HO-68 19 Dec 21:14:29 21:20:52 35° 263° (W) 21:27:19 435.675
UWE-3 19 Dec 21:21:21 21:25:28 70° 76° (ENE) 21:29:43 435.000/436.395/437.385
FUNcube-1 19 Dec 21:23:04 21:27:09 60° 75° (ENE) 21:31:20 145.935
COMPASS 1 19 Dec 21:25:41 21:29:00 22° 265° (W) 21:32:21 437.405
GOMX 1 19 Dec 21:28:11 21:31:16 20° 266° (W) 21:34:21 467.674
SEEDS 19 Dec 21:30:32 21:33:21 17° 267° (W) 21:36:10 437.485
CUTE 1.7 + AOD 2 19 Dec 21:33:21 21:35:37 14° 268° (W) 21:37:53 437.475
AISAT 19 Dec 21:36:58 21:41:15 51° 73° (ENE) 21:45:32 437.250
DX 1 19 Dec 21:40:01 21:44:11 45° 260° (W) 21:48:22 434.975-435.025
SO-50 19 Dec 21:44:18 21:48:41 50° 305° (NW) 21:53:15 436.795
DELFI C3 19 Dec 21:47:18 21:51:02 33° 263° (W) 21:54:48 145.870
CUBEBUG 1 19 Dec 21:47:18 21:50:46 23° 68° (ENE) 21:54:13 437.445
ANTELSAT 19 Dec 21:48:43 21:51:56 18° 93° (E) 21:55:09 437.575/2403.000
50 SAT 19 Dec 21:49:00 21:52:54 54° 74° (ENE) 21:56:52 437.505
POLYITAN 1 19 Dec 21:52:12 21:52:54 10° 91° (E) 21:53:37 437.675
NANOSAT C BR1 19 Dec 21:54:48 21:56:00 11° 91° (E) 21:57:11 145.865
CUSAT 1 19 Dec 21:57:06 22:03:46 32° 272° (W) 22:10:56 437.405
DOVE 4 19 Dec 21:59:16 22:01:06 13° 269° (W) 22:02:57 437.250
HUMSAT D 19 Dec 22:03:47 22:07:54 77° 258° (WSW) 22:12:05 437.325/437.525
Oscar 11 19 Dec 22:05:28 22:08:35 19° 266° (W) 22:11:44 145.826/435.025
QB50P1 19 Dec 22:07:42 22:10:24 16° 93° (E) 22:13:05 145.935-145.965
BEESAT 3 19 Dec 22:09:46 22:13:48 47° 55° (NE) 22:17:47 437.485
AIST 2 19 Dec 22:11:41 22:15:07 23° 49° (NE) 22:18:31 435.215
UKube-1 19 Dec 22:13:14 22:16:28 20° 265° (W) 22:19:42 .
CUBEBUG 2 19 Dec 22:18:54 22:22:05 21° 266° (W) 22:25:20 437.445
TIGRISAT 19 Dec 22:23:51 22:28:19 42° 98° (E) 22:32:46 435.000
ESTCUBE 1 19 Dec 22:29:41 22:34:13 75° 75° (ENE) 22:38:45 437.505/2401.250
PCSat 19 Dec 22:30:14 22:35:08 33° 54° (NE) 22:40:00 145.827
VELOX 1 19 Dec 22:30:58 22:35:06 39° 261° (W) 22:39:16 145.980
ZACube-1 19 Dec 22:33:30 22:36:36 20° 266° (W) 22:39:46 437.345
POPSAT HIP 1 19 Dec 22:35:18 22:39:11 34° 98° (E) 22:43:04 437.405
RS-15 19 Dec 22:38:16 22:48:31 41° 252° (WSW) 22:59:13 29.354- 29.394
YUBILEINY 19 Dec 22:44:03 22:50:50 26° 82° (E) 22:57:35 435.215
DANDE 19 Dec 22:46:02 22:50:34 17° 277° (W) 22:55:21 436.750
BEESAT 2 19 Dec 22:48:44 22:52:55 73° 241° (WSW) 22:57:02 435.950
UNISAT 6 19 Dec 22:52:21 22:57:05 87° 103° (ESE) 23:01:49 437.425
TISAT 1 19 Dec 22:58:02 23:01:49 33° 71° (ENE) 23:05:36 437.305
SPROUT 19 Dec 22:58:29 23:02:15 31° 71° (ENE) 23:06:02 437.525
DUCHIFAT 1 19 Dec 23:03:31 23:07:46 74° 102° (ESE) 23:12:01 145.980
BUGSAT 1 19 Dec 23:06:53 23:10:55 63° 101° (E) 23:14:57 437.445
AISAT 19 Dec 23:16:02 23:18:09 13° 268° (W) 23:20:15 437.250
QB50P2 19 Dec 23:16:25 23:20:41 77° 284° (WNW) 23:24:57 145.880/145.840
SWISSCUBE 19 Dec 23:23:04 23:24:43 12° 62° (ENE) 23:26:23 437.505
CUBEBUG 1 19 Dec 23:23:12 23:26:59 29° 263° (W) 23:30:47 437.445
ITUPSAT 1 19 Dec 23:23:53 23:24:53 11° 61° (ENE) 23:25:53 437.325
ANTELSAT 19 Dec 23:24:25 23:28:53 43° 288° (WNW) 23:33:20 437.575/2403.000
POLYITAN 1 19 Dec 23:24:58 23:29:12 61° 285° (WNW) 23:33:26 437.675
NANOSAT C BR1 19 Dec 23:28:01 23:32:11 56° 286° (WNW) 23:36:22 145.865
QB50P1 19 Dec 23:42:28 23:46:25 38° 288° (WNW) 23:50:22 145.935-145.965
BEESAT 19 Dec 23:46:21 23:49:40 19° 65° (ENE) 23:53:00 436.000
BEESAT 3 19 Dec 23:49:16 23:51:34 15° 251° (WSW) 23:53:50 437.485
AIST 2 19 Dec 23:49:54 23:53:49 35° 246° (WSW) 23:57:40 435.215
M-CUBED/EXP-1 PRIME 19 Dec 23:56:20 23:59:33 18° 60° (ENE) 00:02:47 437.505
TIGRISAT 20 Dec 00:01:24 00:04:44 20° 294° (WNW) 00:08:04 435.000
POPSAT HIP 1 20 Dec 00:11:48 00:14:50 19° 293° (WNW) 00:17:52 437.405
PCSat 20 Dec 00:13:41 00:18:29 33° 251° (WSW) 00:23:15 145.827
Oscar 19 20 Dec 00:18:42 00:20:09 11° 90° (E) 00:21:35 437.125/150
TISAT 1 20 Dec 00:34:47 00:37:42 18° 266° (W) 00:40:38 437.305
SPROUT 20 Dec 00:35:12 00:38:22 20° 266° (W) 00:41:33 437.525
YUBILEINY 20 Dec 00:38:16 00:46:54 63° 281° (W) 00:55:33 435.215
O/OREOS (USA 219) 20 Dec 00:40:57 00:45:22 71° 109° (ESE) 00:49:49 437.305
SWISSCUBE 20 Dec 00:57:08 01:01:55 75° 257° (WSW) 01:06:44 437.505
ITUPSAT 1 20 Dec 00:57:14 01:02:03 83° 257° (WSW) 01:06:53 437.325
STARS 20 Dec 01:01:57 01:04:17 14° 64° (ENE) 01:06:38 437.465
KKS-1 20 Dec 01:02:44 01:06:08 22° 67° (ENE) 01:09:32 437.445
AUBIESAT-1 20 Dec 01:04:11 01:08:58 75° 71° (ENE) 01:13:52 437.475
BEESAT 20 Dec 01:22:36 01:27:10 44° 261° (W) 01:31:45 436.000
M-CUBED/EXP-1 PRIME 20 Dec 01:29:21 01:34:03 56° 255° (WSW) 01:38:54 437.505
VERMONT LUNAR 20 Dec 01:46:20 01:46:58 10° 143° (SE) 01:47:35 437.305
Oscar 19 20 Dec 01:54:49 02:00:01 78° 285° (WNW) 02:05:12 437.125/150
Gurwin Techsat 1B 20 Dec 02:00:12 02:04:36 26° 95° (E) 02:08:58 435.225
ITAMSAT 1 20 Dec 02:08:57 02:14:00 51° 100° (E) 02:19:01 435.822/435.867
O/OREOS (USA 219) 20 Dec 02:23:42 02:25:17 12° 306° (NW) 02:26:52 437.305
HORYU 2 20 Dec 02:26:14 02:28:56 16° 93° (E) 02:31:38 437.375
STARS 20 Dec 02:36:05 02:40:19 50° 260° (W) 02:44:36 437.465
KKS-1 20 Dec 02:38:38 02:42:34 31° 263° (W) 02:46:32 437.445
AUBIESAT-1 20 Dec 02:42:44 02:44:22 12° 266° (W) 02:46:00 437.475
YUBILEINY 20 Dec 02:44:08 02:45:40 11° 302° (WNW) 02:47:13 435.215
AO-7 20 Dec 02:55:16 03:00:34 18° 92° (E) 03:05:50 29.400- 29.500
VERMONT LUNAR 20 Dec 03:21:20 03:24:45 48° 156° (SSE) 03:28:10 437.305
PHONESAT 2.4 20 Dec 03:31:57 03:35:22 39° 154° (SSE) 03:38:47 2401.200-2431.200
AIST 1 20 Dec 03:36:55 03:41:11 66° 81° (E) 03:45:24
Gurwin Techsat 1B 20 Dec 03:39:46 03:44:36 36° 291° (WNW) 03:49:24 435.225
MOZHAYETS 4 20 Dec 03:42:42 03:46:54 35° 71° (ENE) 03:51:08
ITAMSAT 1 20 Dec 03:49:32 03:53:04 19° 296° (WNW) 03:56:35 435.822/435.867
HORYU 2 20 Dec 04:01:30 04:05:49 45° 288° (WNW) 04:10:06 437.375
SO-50 20 Dec 04:37:53 04:40:38 15° 42° (NE) 04:43:24 436.795
GONETS M04 20 Dec 04:38:01 04:45:27 32° 84° (E) 04:52:52
PRISM 20 Dec 04:41:42 04:44:57 22° 68° (ENE) 04:48:13 437.425
AO-7 20 Dec 04:45:48 04:54:13 86° 289° (WNW) 05:02:35 29.400- 29.500
VERMONT LUNAR 20 Dec 04:59:32 05:03:03 66° 353° (N) 05:06:34 437.305
STRAND 1 20 Dec 05:01:04 05:04:24 18° 64° (ENE) 05:07:45 437.568
Cubesat XI-IV 20 Dec 05:02:56 05:03:39 10° 89° (E) 05:04:22 437.490
CUBESAT XI-V 20 Dec 05:05:05 05:08:23 19° 67° (ENE) 05:11:41 437.345
PHONESAT 2.4 20 Dec 05:10:21 05:13:58 72° 350° (N) 05:17:36 2401.200-2431.200
JAS-2 20 Dec 05:13:34 05:19:12 73° 102° (ESE) 05:24:24 435.910
MOZHAYETS 4 20 Dec 05:20:40 05:24:11 21° 266° (W) 05:27:43
CUTE-I 20 Dec 05:33:23 05:37:30 22° 94° (E) 05:41:36 437.470
PRISM 20 Dec 06:16:38 06:20:19 29° 263° (W) 06:24:01 437.425
SO-50 20 Dec 06:16:54 06:21:49 86° 240° (WSW) 06:26:44 436.795
GONETS M04 20 Dec 06:33:13 06:41:47 53° 283° (WNW) 06:50:24
VERMONT LUNAR 20 Dec 06:38:01 06:41:33 72° 10° (N) 06:45:04 437.305
STRAND 1 20 Dec 06:38:09 06:43:08 53° 260° (W) 06:48:09 437.568
Cubesat XI-IV 20 Dec 06:39:00 06:44:21 85° 285° (WNW) 06:49:40 437.490
AO-7 20 Dec 06:40:26 06:45:49 19° 308° (NW) 06:51:13 29.400- 29.500
CUBESAT XI-V 20 Dec 06:41:07 06:45:31 40° 262° (W) 06:49:55 437.345
PHONESAT 2.4 20 Dec 06:49:13 06:52:50 67° 7° (N) 06:56:28 2401.200-2431.200
JAS-2 20 Dec 07:00:47 07:03:28 14° 302° (WNW) 07:06:04 435.910
CUTE-I 20 Dec 07:12:44 07:17:42 42° 290° (WNW) 07:22:40 437.470
GOMX 1 20 Dec 07:54:05 07:55:20 11° 91° (E) 07:56:36 467.674
MaSat-1 20 Dec 08:02:36 08:03:32 12° 108° (ESE) 08:04:28 437.345
VERMONT LUNAR 20 Dec 08:16:28 08:19:47 38° 206° (SSW) 08:23:05 437.305
DOVE 4 20 Dec 08:20:04 08:23:01 16° 93° (E) 08:26:02 437.250
Cubesat XI-IV 20 Dec 08:22:32 08:23:35 11° 301° (WNW) 08:24:37 437.490
PHONESAT 2.4 20 Dec 08:28:00 08:31:30 48° 204° (SSW) 08:35:01 2401.200-2431.200
AAUSAT CUBESAT 2 20 Dec 08:35:46 08:39:04 22° 95° (E) 08:42:21 437.432
HO-68 20 Dec 08:42:47 08:49:43 51° 101° (E) 08:56:35 435.675
CANX-2 20 Dec 08:47:07 08:51:22 53° 100° (E) 08:55:34 2200.000
ANTELSAT 20 Dec 08:48:01 08:50:08 13° 64° (ENE) 08:52:16 437.575/2403.000
CINEMA 3 20 Dec 08:48:21 08:51:41 19° 93° (E) 08:55:05 145.822/145.860
YUBILEINY 20 Dec 08:58:42 08:59:56 10° 58° (ENE) 09:01:09 435.215
BRITE-PL 20 Dec 09:00:18 09:05:02 78° 102° (ESE) 09:10:10 437.365/2234.400
QB50P1 20 Dec 09:01:23 09:02:33 11° 63° (ENE) 09:03:43 145.935-145.965
COMPASS 1 20 Dec 09:10:05 09:14:20 64° 101° (E) 09:18:32 437.405
UWE-3 20 Dec 09:13:46 09:16:48 17° 93° (E) 09:19:52 435.000/436.395/437.385
FUNcube-1 20 Dec 09:14:34 09:17:00 14° 92° (E) 09:19:25 145.935
SEEDS 20 Dec 09:15:03 09:19:22 89° 103° (ESE) 09:23:38 437.485
O/OREOS (USA 219) 20 Dec 09:15:33 09:16:49 11° 53° (NE) 09:18:04 437.305
CUTE 1.7 + AOD 2 20 Dec 09:17:58 09:22:17 73° 284° (WNW) 09:26:34 437.475
TIGRISAT 20 Dec 09:21:51 09:25:37 30° 70° (ENE) 09:29:29 435.000
CUSAT 1 20 Dec 09:24:51 09:28:12 51° 93° (E) 09:32:39 437.405
POPSAT HIP 1 20 Dec 09:27:42 09:30:56 22° 68° (ENE) 09:34:11 437.405
GOMX 1 20 Dec 09:29:01 09:33:47 75° 284° (WNW) 09:38:53 467.674
DELFI C3 20 Dec 09:29:14 09:33:03 35° 98° (E) 09:36:49 145.870
DX 1 20 Dec 09:30:02 09:33:57 32° 98° (E) 09:37:50 434.975-435.025
AISAT 20 Dec 09:32:14 09:33:21 11° 91° (E) 09:34:29 437.250
MaSat-1 20 Dec 09:35:44 09:36:44 12° 301° (WNW) 09:37:43 437.345
UNISAT 6 20 Dec 09:50:11 09:54:29 64° 75° (ENE) 09:58:54 437.425
HUMSAT D 20 Dec 09:50:38 09:53:50 20° 94° (E) 09:57:01 437.325/437.525
Oscar 11 20 Dec 09:52:54 09:57:18 85° 102° (ESE) 10:01:39 145.826/435.025
DUCHIFAT 1 20 Dec 09:55:02 09:59:01 44° 73° (ENE) 10:03:02 145.980
BUGSAT 1 20 Dec 09:56:04 09:59:49 36° 72° (ENE) 10:03:33 437.445
DOVE 4 20 Dec 09:56:19 10:00:57 52° 286° (WNW) 10:05:51 437.250
UKube-1 20 Dec 10:01:13 10:05:33 73° 102° (ESE) 10:09:52 .
QB50P2 20 Dec 10:08:06 10:12:16 66° 75° (ENE) 10:16:28 145.880/145.840
PHONESAT 2.4 20 Dec 10:08:55 10:09:39 11° 218° (SW) 10:10:22 2401.200-2431.200
CUBEBUG 2 20 Dec 10:09:58 10:14:38 83° 102° (ESE) 10:19:23 437.445
AAUSAT CUBESAT 2 20 Dec 10:11:04 10:14:43 28° 290° (WNW) 10:18:19 437.432
DANDE 20 Dec 10:15:07 10:18:20 44° 286° (WNW) 10:22:36 436.750
POLYITAN 1 20 Dec 10:16:46 10:20:59 84° 76° (ENE) 10:25:13 437.675
NANOSAT C BR1 20 Dec 10:19:19 10:23:31 88° 79° (E) 10:27:44 145.865
ANTELSAT 20 Dec 10:22:09 10:26:24 55° 260° (W) 10:30:48 437.575/2403.000
ZACube-1 20 Dec 10:22:11 10:26:45 82° 103° (ESE) 10:31:21 437.345
VELOX 1 20 Dec 10:23:05 10:27:16 41° 99° (E) 10:31:27 145.980
CINEMA 3 20 Dec 10:24:30 10:29:00 44° 287° (WNW) 10:33:39 145.822/145.860
CANX-2 20 Dec 10:24:47 10:26:49 13° 295° (WNW) 10:28:51 2200.000
ESTCUBE 1 20 Dec 10:25:17 10:28:16 17° 93° (E) 10:31:14 437.505/2401.250
HO-68 20 Dec 10:31:04 10:37:04 30° 298° (WNW) 10:43:03 435.675
QB50P1 20 Dec 10:33:44 10:37:53 61° 259° (W) 10:42:04 145.935-145.965
BRITE-PL 20 Dec 10:41:40 10:43:02 11° 296° (WNW) 10:44:25 437.365/2234.400
RS-15 20 Dec 10:48:10 10:57:58 39° 107° (ESE) 11:07:41 29.354- 29.394
COMPASS 1 20 Dec 10:48:26 10:49:28 11° 296° (WNW) 10:50:30 437.405
UWE-3 20 Dec 10:49:08 10:53:29 43° 287° (WNW) 10:57:54 435.000/436.395/437.385
FUNcube-1 20 Dec 10:49:11 10:53:35 51° 286° (WNW) 10:58:01 145.935
YUBILEINY 20 Dec 10:50:06 10:58:43 62° 79° (E) 11:07:18 435.215
O/OREOS (USA 219) 20 Dec 10:52:15 10:56:46 78° 251° (WSW) 11:01:18 437.305
TIGRISAT 20 Dec 10:59:00 11:02:22 22° 266° (W) 11:05:50 435.000
POPSAT HIP 1 20 Dec 11:03:03 11:06:41 28° 263° (W) 11:10:19 437.405
DELFI C3 20 Dec 11:05:20 11:08:01 17° 293° (WNW) 11:10:41 145.870
50 SAT 20 Dec 11:05:44 11:09:52 68° 284° (WNW) 11:14:00 437.505
AISAT 20 Dec 11:05:58 11:10:21 62° 286° (WNW) 11:14:44 437.250
DX 1 20 Dec 11:06:44 11:09:58 21° 293° (WNW) 11:13:12 434.975-435.025
CUBEBUG 1 20 Dec 11:13:05 11:17:22 56° 101° (E) 11:21:37 437.445
HUMSAT D 20 Dec 11:25:47 11:29:40 33° 289° (WNW) 11:33:33 437.325/437.525
UNISAT 6 20 Dec 11:31:15 11:31:43 10° 271° (W) 11:32:11 437.425
BUGSAT 1 20 Dec 11:32:53 11:35:25 16° 266° (W) 11:37:57 437.445
DUCHIFAT 1 20 Dec 11:32:59 11:35:06 14° 268° (W) 11:37:14 145.980
Oscar 19 20 Dec 11:33:37 11:36:35 16° 62° (ENE) 11:39:33 437.125/150
CUBEBUG 2 20 Dec 11:50:18 11:50:40 10° 298° (WNW) 11:51:02 437.445
VELOX 1 20 Dec 12:00:38 12:03:31 17° 294° (WNW) 12:06:24 145.980
ESTCUBE 1 20 Dec 12:01:05 12:05:17 40° 288° (WNW) 12:09:27 437.505/2401.250
BEESAT 3 20 Dec 12:05:23 12:07:09 13° 108° (ESE) 12:08:56 437.485
TISAT 1 20 Dec 12:19:42 12:23:57 78° 102° (ESE) 12:28:10 437.305
SPROUT 20 Dec 12:22:08 12:26:27 77° 102° (ESE) 12:30:45 437.525
BEESAT 2 20 Dec 12:42:56 12:46:32 30° 113° (ESE) 12:50:10 435.950
YUBILEINY 20 Dec 12:48:04 12:54:48 26° 278° (W) 13:01:33 435.215
CUBEBUG 1 20 Dec 12:51:22 12:53:14 13° 296° (WNW) 12:55:06 437.445
RS-15 20 Dec 12:59:08 13:09:49 57° 308° (NW) 13:20:37 29.354- 29.394
SWISSCUBE 20 Dec 12:59:32 13:03:45 31° 97° (E) 13:07:56 437.505
ITUPSAT 1 20 Dec 12:59:59 13:04:06 28° 96° (E) 13:08:10 437.325
JUGNU 20 Dec 13:03:02 13:05:04 12° 176° (S) 13:07:05 437.505
Oscar 19 20 Dec 13:10:17 13:15:21 63° 259° (WSW) 13:20:29 437.125/150
PCSat 20 Dec 13:10:27 13:15:26 39° 110° (ESE) 13:20:26 145.827
M-CUBED/EXP-1 PRIME 20 Dec 13:16:18 13:18:19 13° 95° (E) 13:20:14 437.505
Gurwin Techsat 1B 20 Dec 13:19:48 13:24:36 36° 69° (ENE) 13:29:25 435.225
BEESAT 20 Dec 13:24:16 13:28:56 52° 100° (E) 13:33:33 436.000
HORYU 2 20 Dec 13:24:33 13:26:37 13° 63° (ENE) 13:28:41 437.375
ISS 20 Dec 13:24:35 13:27:51 65° 138° (SE) 13:31:08 145.825
ITAMSAT 1 20 Dec 13:25:29 13:30:37 68° 74° (ENE) 13:35:46 435.822/435.867
BEESAT 3 20 Dec 13:40:50 13:44:50 53° 304° (NW) 13:48:55 437.485
AIST 2 20 Dec 13:46:21 13:50:32 70° 118° (ESE) 13:54:49 435.215
AO-7 20 Dec 13:52:52 13:59:11 25° 56° (NE) 14:05:32 29.400- 29.500
SRMSAT 20 Dec 14:06:42 14:08:12 11° 174° (S) 14:09:41 437.500
BEESAT 2 20 Dec 14:21:22 14:24:46 24° 310° (NW) 14:28:14 435.950
AUBIESAT-1 20 Dec 14:23:52 14:28:11 77° 107° (ESE) 14:32:06 437.475
STARS 20 Dec 14:27:43 14:31:42 32° 97° (E) 14:35:41 437.465
KKS-1 20 Dec 14:30:47 14:35:10 54° 100° (E) 14:39:33 437.445
SWISSCUBE 20 Dec 14:37:34 14:41:28 26° 292° (WNW) 14:45:20 437.505
ITUPSAT 1 20 Dec 14:37:51 14:41:54 28° 292° (WNW) 14:45:55 437.325
M-CUBED/EXP-1 PRIME 20 Dec 14:49:29 14:53:42 47° 293° (WNW) 14:57:31 437.505
GONETS M04 20 Dec 14:51:26 14:55:19 13° 60° (ENE) 14:59:10
JUGNU 20 Dec 14:51:43 14:53:11 11° 187° (S) 14:54:38 437.505
PCSat 20 Dec 14:54:15 14:58:54 29° 308° (NW) 15:03:36 145.827
HORYU 2 20 Dec 14:58:22 15:02:45 58° 259° (W) 15:07:11 437.375
Gurwin Techsat 1B 20 Dec 15:00:11 15:04:35 26° 265° (W) 15:09:01 435.225
ISS 20 Dec 15:02:17 15:04:43 19° 336° (NNW) 15:07:08 145.825
BEESAT 20 Dec 15:03:27 15:06:19 16° 296° (WNW) 15:09:11 436.000
ITAMSAT 1 20 Dec 15:08:11 15:10:33 13° 269° (W) 15:12:54 435.822/435.867
RS-15 20 Dec 15:17:46 15:25:21 20° 338° (NNW) 15:33:04 29.354- 29.394
JAS-2 20 Dec 15:22:41 15:29:14 33° 67° (ENE) 15:35:19 435.910
AIST 2 20 Dec 15:27:23 15:29:38 14° 316° (NW) 15:31:55 435.215
AO-7 20 Dec 15:42:51 15:51:09 75° 254° (WSW) 15:59:32 29.400- 29.500
SRMSAT 20 Dec 15:54:34 15:56:28 12° 184° (S) 15:58:21 437.500
STARS 20 Dec 16:04:36 16:07:59 22° 293° (WNW) 16:11:21 437.465
AIST 1 20 Dec 16:04:59 16:09:07 42° 92° (E) 16:13:14
KKS-1 20 Dec 16:09:02 16:11:20 14° 296° (WNW) 16:13:39 437.445
Cubesat XI-IV 20 Dec 16:22:07 16:25:29 17° 63° (ENE) 16:28:51 437.490
GONETS M04 20 Dec 16:45:01 16:53:49 74° 81° (E) 17:02:29
CUTE-I 20 Dec 16:53:48 16:58:29 33° 68° (ENE) 17:03:11 437.470
JAS-2 20 Dec 17:06:35 17:13:59 50° 261° (W) 17:20:52 435.910
MOZHAYETS 4 20 Dec 17:16:05 17:20:43 79° 284° (WNW) 17:25:18
MaSat-1 20 Dec 17:33:48 17:34:57 12° 59° (ENE) 17:36:07 437.345
RS-15 20 Dec 17:36:43 17:43:51 18° 16° (NNE) 17:51:06 29.354- 29.394
AO-7 20 Dec 17:42:11 17:45:10 12° 271° (W) 17:48:09 29.400- 29.500
AIST 1 20 Dec 17:44:27 17:46:58 15° 288° (WNW) 17:49:30
PRISM 20 Dec 18:00:47 18:04:44 41° 99° (E) 18:08:38 437.425
